NOAA 17 DEB, 48711

Orbit data source: Space-Track

NOAA 17 DEB, 48711 is space debris in SSO originally from a launch on Mon, 24 Jun 2002 UTC launched from the Air Force Western Test Range (AFWTR). Debris objects in space refer to the collection of defunct objects orbiting the Earth. Examples of debris include non-operational satellites, rocket bodies, and fragments generated from explosions, collisions, or faulty payload assembly.

Loading next visibility...
Identifier
48711, 2002-032AU
Orbit
SSO
Country
Flag of USUS
Related business
Manufacturer
Unknown
Mission
Spacecraft
Bus & Motor
Unknown
Mass
Unknown
Launch date (UTC)
2002-06-24 (24 years ago)
Launch vehicle
Unknown
Launch site
Air Force Western Test Range (AFWTR)
Object type
Payload
Rocket body
Debris
Shape & HBR
Unknown shape, 0.1 m
Radar Cross Section
Medium (>0.1 m² and <1 m²)

Expand to show TLE details & history
Last TLE update: 3 days ago

TLE from 3 days ago
0 NOAA 17 DEB
1 48711U 02032AU  26170.32133593  .00003669  00000-0  13046-2 0  9993
2 48711  98.8076 126.0717 0060093   0.3939 359.7282 14.33958462271266
Epoch: 2026-06-19T07:42Z
TLE epoch observation values (Epoch: 2026-06-19T07:42:43.424Z)
Latitude
-0.00002°
Longitude
102.83878°
Altitude
738.445 km
Speed
7.508 km/s
True Right ascension
08h 24m 17s
True Declination
0° 00' 00"
Sunlit
Object was in daylight at epoch
Visualization orbit readout
Latitude
Unknown
Longitude
Unknown
Altitude
Unknown
Speed
Unknown
Apparent Right ascension
Unknown
Apparent Declination
Unknown
Sunlit
N/A
Visualization observer readout
Local Sidereal Time
02:13:23
Azimuth
Unknown
Elevation
Unknown
Doppler factor
Unknown
Orbital elements
Apogee altitude
818.664 km
Perigee altitude
732.685 km
Semi-major axis
7,153.811 km
Eccentricity
0.00601
Inclination
98.8076°
RAAN
126.0717°
Arg. of periapsis
0.3939°
True anomaly
359.72491°
Mean anomaly
359.7282°
Eccentric anomaly
359.72656°
Mean motion
3.58705 °/min
Orbital period
100.36 mins
BSTAR
0.0013046
Loading maneuver chart data...
Computing Atmospheric mass density...

Documentation

Showing up to 5 results
|